[[[{"header":{"parameterUnit":"kt","parameterCategory":2,"dx":1,"dy":1,"la1":30.253999710083008,"la2":30.299108505249023,"lo1":-89.0895004272461,"lo2":-89.04439544677734,"nx":28,"ny":28,"refTime":"2022-09-26T21:00:00:Z","depth":0,"parameterNumber":1,"parameterNumberName":"U-component_of_WINDS"},"data":[-8.7167,-8.7446,-8.743,-8.774,-8.7777,-8.7987,-8.8056,-8.8144,-8.821,-8.8456,-8.8595,-8.8606,-8.8665,-8.8826,-8.8976,-8.8977,-8.9044,-8.9153,-8.9138,-8.866,-8.8593,-8.8529,-8.8464,-8.9167,-8.9168,-8.9637,-8.9641,-8.9645,-8.6816,-8.6857,-8.7016,-8.716,-8.7295,-8.7179,-8.7283,-8.7406,-8.7596,-8.7678,-8.7814,-8.8029,-8.8197,-8.8219,-8.8378,-8.8507,-8.8464,-8.8552,-8.8546,-8.8557,-8.8044,-8.7975,-8.8585,-8.8585,-8.8585,-8.8585,-8.8585,-8.8584,-8.6174,-8.6342,-8.6419,-8.6592,-8.6659,-8.6755,-8.6912,-8.6922,-8.7077,-8.7242,-8.719,-8.7405,-8.7485,-8.7668,-8.7725,-8.7891,-8.7791,-8.7884,-8.7908,-8.7934,-8.7966,-8.7297,-8.7917,-8.7915,-8.7913,-8.7912,-8.791,0,-8.5701,-8.5676,-8.5827,-8.5975,-8.6099,-8.6212,-8.6312,-8.6408,-8.6349,-8.648,-8.6667,-8.6773,-8.6981,-8.7156,-8.73,-8.7341,-8.7238,-8.7223,-8.7288,-8.7321,-8.733,-8.7334,-8.6503,-8.7208,-8.7202,-8.7197,-8.7194,-8.7191,-8.5057,-8.5253,-8.5325,-8.5434,-8.5485,-8.5661,-8.5762,-8.5695,-8.5806,-8.5919,-8.607,-8.6243,-8.638,-8.6683,-8.6694,-8.685,-8.6803,-8.7074,-8.6826,-8.6846,-8.6813,-8.6805,-8.6826,-8.7126,-8.7135,-8.7142,-8.7147,0,-8.4697,-8.4669,-8.4967,-8.5019,-8.5038,-8.5248,-8.5292,-8.5456,-8.5447,-8.5672,-8.572,-8.571,-8.5895,-8.5861,-8.6066,-8.6044,-8.639,-8.6336,-8.6362,-8.6351,-8.6595,-8.6575,-8.7382,-8.7486,-8.675,-8.6757,-8.6763,0,-8.414,-8.44,-8.4343,-8.4518,-8.4804,-8.473,-8.5015,-8.5036,-8.5103,-8.528,-8.5154,-8.5322,-8.5252,-8.5415,-8.5382,-8.5657,-8.5694,-8.5695,-8.5685,-8.5711,-8.5712,-8.5775,-8.5744,-8.5646,-8.5642,-8.5638,-8.5635,0,-8.3584,-8.3856,-8.4139,-8.4197,-8.428,-8.4414,-8.4455,-8.4529,-8.463,-8.4754,-8.4819,-8.4968,-8.5052,-8.517,-8.5127,-8.4961,-8.5461,-8.5223,-8.5463,-8.5465,-8.5582,-8.5577,-8.6293,-8.563,-8.5629,-8.5628,-8.5626,0,-8.3132,-8.3259,-8.3671,-8.3737,-8.3812,-8.3998,-8.4141,-8.4291,-8.4379,-8.437,-8.4467,-8.4382,-8.4616,-8.4383,-8.4707,-8.4502,-8.4592,-8.4613,-8.4629,-8.4655,-8.4397,-8.4813,-8.5493,-8.5566,-8.4669,-8.4661,-8.4654,0,-8.2506,-8.2914,-8.2854,-8.3248,-8.3432,-8.328,-8.3484,-8.3565,-8.357,-8.3727,-8.373,-8.3911,-8.373,-8.3782,-8.3945,-8.3959,-8.4224,-8.3921,-8.4154,-8.4163,-8.4141,-8.4765,-8.4878,-8.5346,-8.4551,-8.4562,-8.4569,0,-8.2018,-8.2116,-8.2191,-8.2255,-8.235,-8.2503,-8.2737,-8.2899,-8.3008,-8.3111,-8.3309,-8.3558,-8.3433,-8.3521,-8.3467,-8.364,-8.4042,-8.3483,-8.3484,-8.3589,-8.4495,-8.4601,-8.468,-8.3968,-8.398,-8.399,-8.4488,0,-8.135,-8.155,-8.1748,-8.1893,-8.2005,-8.2249,-8.2214,-8.2336,-8.2272,-8.2273,-8.2559,-8.2618,-8.2785,-8.2863,-8.2804,-8.3208,-8.3137,-8.3002,-8.2778,-8.3185,-8.3349,-8.3415,-8.2537,-8.253,-8.2524,-8.2519,0,0,-8.0762,-8.1047,-8.0975,-8.12,-8.1291,-8.113,-8.1395,-8.1464,-8.1611,-8.1678,-8.155,-8.1914,-8.1969,-8.2322,-8.2446,-8.2512,-8.2583,-8.2443,-8.299,-8.3043,-8.3092,-8.3267,-8.3337,-8.2509,-8.2507,-8.2505,-8.2503,0,-8.0512,-8.0568,-8.0828,-8.0897,-8.0996,-8.0982,-8.1045,-8.1116,-8.1128,-8.1408,-8.1274,-8.1442,-8.1735,-8.1812,-8.1889,-8.2396,-8.229,-8.2449,-8.2736,-8.2933,-8.2994,-8.3047,-8.3232,-8.3299,-8.2489,-8.249,-8.249,0,-8.0029,-8.008,-8.0202,-8.0399,-8.0463,-8.0656,-8.0411,-8.0625,-8.0768,-8.0585,-8.0866,-8.0895,-8.0994,-8.133,-8.148,-8.137,-8.2025,-8.1811,-8.1846,-8.1864,-8.2054,-8.2127,-8.2191,-8.1342,-8.1338,-8.1334,0,0,-7.9819,-8.0003,-8.0038,-8.0343,-8.0392,-8.0377,-8.0475,-8.0423,-8.0515,-8.0552,-8.0588,-8.0682,-8.0851,-8.0965,-8.1122,-8.1496,-8.1513,-8.1671,-8.1725,-8.1769,-8.1812,-8.2013,-8.2085,-8.132,-8.132,-8.1319,0,0,-7.9719,-7.9772,-7.9691,-8.004,-8.0131,-8.0187,-8.0375,-8.0279,-8.0417,-8.0386,-8.0309,-8.0331,-8.0644,-8.0679,-8.0488,-8.1043,-8.0821,-8.0866,-8.101,-8.1078,-8.1131,-8.1119,-8.0248,0,0,0,0,0,-7.9447,-7.9764,-7.9691,-7.9744,-7.9994,-8.0227,-8.0258,-8.0202,-8.0046,-8.0196,-8.021,-8.0087,-8.056,-8.0389,-8.0444,-8.066,-8.1132,-8.1166,-8.1197,-8.1471,-8.1542,-8.1602,0,0,0,0,0,0,-7.9467,-7.9533,-7.9682,-7.9753,-7.9808,-8.0215,-7.9938,-7.9931,-8.0028,-8.0001,-8.0088,-8.009,-8.0047,-8.0357,-8.0407,-8.0614,-8.0231,-8.1145,-8.1174,-8.1199,-8.1495,-8.1553,-8.1603,0,0,0,0,0,-7.9483,-7.9536,-7.9952,-7.9747,-7.9796,-7.9796,-7.9926,-7.9918,-7.9992,-8.0016,-8.0013,-7.9941,-8.0055,-8.0093,-8.0387,-8.0592,-8.0196,-8.0215,-8.1164,-8.1186,-8.1206,-8.1524,0,0,0,0,0,0,-7.9495,-7.9531,-7.996,-7.9973,-7.9624,-7.9772,-7.9793,-7.9907,-7.9999,-8.0001,-7.9863,-7.984,-8.0064,-8.0092,-8.0122,-8.0588,-8.0167,-8.0187,-8.0199,-8.1181,-8.1198,-8.1214,0,0,0,0,0,0,-7.9502,-7.9543,-7.9967,-7.9814,-7.9808,-7.9751,-7.977,-8.0011,-8.0003,-7.9841,-7.9825,-7.9852,-8.0018,-8.0093,-8.0116,-8.0494,-8.0145,-8.0164,-8.0177,-8.0185,-8.1195,-8.1209,0,0,0,0,0,0,-7.9518,-7.9553,-7.981,-7.9806,-7.98,-7.9938,-7.9962,-8.0223,-7.987,-7.9839,-7.9837,-7.9822,-8.0024,-8.0045,-8.0112,-8.0482,-8.0491,-8.0146,-8.0159,-8.0168,-8.0173,0,0,0,0,0,0,0,-7.9531,-7.9311,-7.9885,-7.9799,-7.9794,-8.009,-8.0093,-8.0097,-7.9867,-7.9854,-7.9841,-7.9828,-8.004,-8.006,-8.0081,-8.0472,0,0,-8.0144,-8.0153,0,0,0,0,0,0,0,0,-7.9295,-7.9307,-7.9886,-7.9888,-7.9891,-8.009,-8.0093,-8.0096,-7.9865,-7.9854,-7.9843,-7.9833,-8.0046,-8.0062,-8.0078,0,0,0,0,0,0,0,0,0,0,0,0,0,0,0,-7.9886,-7.9888,0,-8.0091,-8.0093,-8.0095,-7.9863,-7.9854,-7.9846,-7.9837,-8.005,-8.0064,-8.0077,0,0,0,0,0,0,0,0,0,0,0,0,0,0,0,0,0,0,0,0,0,0,0,0,0,0,0,0,0,0,0,0,0,0,0,0,0,0,0,0,0,0,0,0,0,0,0,0,0,0,0,0,0,0,0,0,0,0,0,0,0,0,0,0,0,0,0,0,0]}],[{"header":{"parameterUnit":"kt","parameterCategory":2,"dx":1,"dy":1,"la1":30.253999710083008,"la2":30.299108505249023,"lo1":-89.0895004272461,"lo2":-89.04439544677734,"nx":28,"ny":28,"refTime":"2022-09-26T21:00:00:Z","depth":0,"parameterNumber":2,"parameterNumberName":"V-component_of_WINDS"},"data":[-16.6318,-16.6611,-16.6594,-16.6918,-16.6956,-16.7173,-16.7244,-16.7332,-16.7397,-16.7649,-16.7789,-16.7797,-16.785,-16.8009,-16.8157,-16.8155,-16.8219,-16.8335,-16.8314,-16.7814,-16.7744,-16.7676,-16.7607,-16.835,-16.8351,-16.8835,-16.8839,-16.8843,-16.595,-16.5993,-16.6161,-16.631,-16.6452,-16.6329,-16.6435,-16.6561,-16.6756,-16.6838,-16.6976,-16.7194,-16.7362,-16.7375,-16.7532,-16.7662,-16.7611,-16.7706,-16.7696,-16.7706,-16.7171,-16.7098,-16.7744,-16.7744,-16.7744,-16.7744,-16.7744,-16.7744,-16.5276,-16.5452,-16.5533,-16.5714,-16.5784,-16.5883,-16.6046,-16.6053,-16.6213,-16.6379,-16.6323,-16.6542,-16.6616,-16.6794,-16.6848,-16.7014,-16.6905,-16.7001,-16.7025,-16.705,-16.7082,-16.6386,-16.7039,-16.7037,-16.7035,-16.7034,-16.7032,0,-16.4776,-16.475,-16.4909,-16.5064,-16.5194,-16.5311,-16.5413,-16.5513,-16.5445,-16.558,-16.5772,-16.5878,-16.6086,-16.6261,-16.6402,-16.6437,-16.632,-16.6305,-16.6371,-16.6403,-16.6413,-16.6411,-16.5539,-16.6286,-16.628,-16.6275,-16.6272,-16.6269,-16.4094,-16.4303,-16.4378,-16.4492,-16.4544,-16.4729,-16.4834,-16.4759,-16.4873,-16.4985,-16.5142,-16.5317,-16.5454,-16.576,-16.5761,-16.5914,-16.5859,-16.6146,-16.5881,-16.5902,-16.5863,-16.5852,-16.5871,-16.62,-16.6209,-16.6216,-16.6222,0,-16.3712,-16.3682,-16.3998,-16.4051,-16.407,-16.4291,-16.4333,-16.4503,-16.449,-16.4723,-16.4772,-16.4752,-16.4939,-16.4893,-16.5097,-16.5066,-16.5421,-16.5363,-16.5395,-16.5381,-16.5633,-16.5611,-16.6462,-16.6569,-16.5798,-16.5806,-16.5812,0,-16.3118,-16.3394,-16.3332,-16.3518,-16.382,-16.3738,-16.4037,-16.4056,-16.4122,-16.4304,-16.4164,-16.4337,-16.4251,-16.4417,-16.4372,-16.4654,-16.4692,-16.4685,-16.4671,-16.4699,-16.47,-16.4757,-16.4722,-16.4629,-16.4624,-16.4621,-16.4617,0,-16.2523,-16.2813,-16.3114,-16.3174,-16.3258,-16.3399,-16.344,-16.3512,-16.3615,-16.374,-16.3805,-16.3957,-16.404,-16.4157,-16.41,-16.3921,-16.4443,-16.4186,-16.4436,-16.4438,-16.4555,-16.4549,-16.5313,-16.4612,-16.4611,-16.4609,-16.4608,0,-16.2039,-16.2173,-16.2614,-16.2678,-16.2757,-16.2955,-16.31,-16.3258,-16.3344,-16.3329,-16.3427,-16.3328,-16.3572,-16.3319,-16.3652,-16.3436,-16.3525,-16.354,-16.3557,-16.3577,-16.3297,-16.3735,-16.4468,-16.4543,-16.3593,-16.3585,-16.3577,0,-16.1366,-16.1803,-16.1736,-16.2156,-16.2351,-16.2182,-16.2398,-16.2479,-16.2478,-16.264,-16.2636,-16.2821,-16.2624,-16.2675,-16.2846,-16.2849,-16.313,-16.281,-16.3039,-16.3049,-16.3023,-16.3697,-16.3818,-16.4312,-16.3468,-16.348,-16.3488,0,-16.084,-16.0942,-16.1022,-16.1087,-16.1185,-16.1347,-16.1596,-16.1763,-16.1874,-16.1981,-16.2185,-16.2443,-16.2304,-16.2391,-16.2326,-16.2507,-16.2937,-16.2333,-16.2334,-16.2443,-16.341,-16.3523,-16.3607,-16.2853,-16.2866,-16.2876,-16.3402,0,-16.0115,-16.033,-16.0544,-16.0696,-16.0814,-16.1074,-16.103,-16.1158,-16.1085,-16.1078,-16.1378,-16.1432,-16.16,-16.1681,-16.1611,-16.204,-16.196,-16.1811,-16.1562,-16.2005,-16.2177,-16.2247,-16.131,-16.1302,-16.1296,-16.1291,0,0,-15.9478,-15.9786,-15.9705,-15.9946,-16.0041,-15.9863,-16.0145,-16.0215,-16.0363,-16.0431,-16.0292,-16.0666,-16.0716,-16.1085,-16.1219,-16.1287,-16.1358,-16.1206,-16.1795,-16.1851,-16.1903,-16.2088,-16.2162,-16.1279,-16.1277,-16.1275,-16.1273,0,-15.9205,-15.9266,-15.9548,-15.9618,-15.972,-15.97,-15.9768,-15.9836,-15.9845,-16.014,-15.9986,-16.0159,-16.0462,-16.0534,-16.0611,-16.116,-16.1034,-16.1215,-16.1527,-16.1732,-16.1797,-16.1854,-16.2049,-16.212,-16.1257,-16.1258,-16.1259,0,-15.8679,-15.8732,-15.8864,-15.9073,-15.9138,-15.9343,-15.9072,-15.93,-15.945,-15.924,-15.9536,-15.956,-15.9653,-16.0008,-16.0166,-16.0043,-16.0741,-16.0513,-16.0552,-16.0568,-16.0764,-16.0843,-16.0912,-15.9995,-15.9991,-15.9987,0,0,-15.8449,-15.8648,-15.868,-15.9011,-15.9063,-15.9037,-15.9142,-15.908,-15.917,-15.9207,-15.9236,-15.9326,-15.9499,-15.9616,-15.9776,-16.0173,-16.0185,-16.0359,-16.0419,-16.0468,-16.0511,-16.072,-16.0797,-15.9972,-15.9971,-15.9971,0,0,-15.8337,-15.8389,-15.83,-15.8679,-15.8772,-15.8823,-15.9026,-15.8917,-15.9058,-15.9023,-15.8926,-15.8946,-15.9277,-15.9306,-15.91,-15.9686,-15.9442,-15.949,-15.9656,-15.973,-15.9789,-15.9775,-15.8828,0,0,0,0,0,-15.8036,-15.8382,-15.8301,-15.8358,-15.8622,-15.8868,-15.8901,-15.8831,-15.8659,-15.8821,-15.8827,-15.8685,-15.9174,-15.899,-15.9046,-15.9277,-15.9768,-15.9804,-15.9838,-16.0145,-16.0223,-16.0289,0,0,0,0,0,0,-15.8057,-15.8128,-15.8291,-15.8359,-15.8417,-15.8855,-15.8549,-15.8539,-15.864,-15.8609,-15.8688,-15.8687,-15.863,-15.8956,-15.9008,-15.9229,-15.881,-15.9782,-15.9812,-15.984,-16.0172,-16.0236,-16.0291,0,0,0,0,0,-15.8074,-15.8131,-15.8574,-15.8353,-15.8404,-15.8394,-15.8535,-15.8524,-15.8601,-15.8612,-15.8606,-15.854,-15.8638,-15.8677,-15.8986,-15.9207,-15.8774,-15.8794,-15.9802,-15.9826,-15.9848,-16.0203,0,0,0,0,0,0,-15.8087,-15.8122,-15.8582,-15.8595,-15.8218,-15.8368,-15.8389,-15.8513,-15.8595,-15.8594,-15.8457,-15.8431,-15.8649,-15.8676,-15.8707,-15.9204,-15.8744,-15.8764,-15.8777,-15.982,-15.9839,-15.9856,0,0,0,0,0,0,-15.809,-15.8134,-15.8588,-15.8422,-15.8414,-15.8344,-15.8364,-15.8615,-15.8598,-15.8435,-15.8416,-15.8444,-15.8601,-15.8678,-15.8701,-15.9097,-15.8722,-15.8741,-15.8754,-15.8762,-15.9836,-15.985,0,0,0,0,0,0,-15.8107,-15.8144,-15.8418,-15.8413,-15.8405,-15.8542,-15.8565,-15.8838,-15.8459,-15.8434,-15.8423,-15.8406,-15.8607,-15.8628,-15.8698,-15.9086,-15.9094,-15.8722,-15.8735,-15.8745,-15.8751,0,0,0,0,0,0,0,-15.8121,-15.7891,-15.8507,-15.8405,-15.8398,-15.8712,-15.8716,-15.8719,-15.8456,-15.8441,-15.8427,-15.8413,-15.8613,-15.8634,-15.8655,-15.9076,0,0,-15.872,-15.873,0,0,0,0,0,0,0,0,-15.7874,-15.7887,-15.8508,-15.8511,-15.8513,-15.8713,-15.8715,-15.8718,-15.8453,-15.8442,-15.843,-15.8419,-15.8619,-15.8635,-15.8653,0,0,0,0,0,0,0,0,0,0,0,0,0,0,0,-15.8508,-15.851,0,-15.8713,-15.8715,-15.8718,-15.8452,-15.8442,-15.8432,-15.8423,-15.8623,-15.8637,-15.8651,0,0,0,0,0,0,0,0,0,0,0,0,0,0,0,0,0,0,0,0,0,0,0,0,0,0,0,0,0,0,0,0,0,0,0,0,0,0,0,0,0,0,0,0,0,0,0,0,0,0,0,0,0,0,0,0,0,0,0,0,0,0,0,0,0,0,0,0,0]}]]]